Date String (YYYY-MM-DD hh:mm:ss) UTC,Instrument flags,absolute air pressure of the measurement (hPa),sample flow rate (lpm),inlet stack bypass flow (lpm),air temperature of the measurement (°C),ambient temperature measured by the external sensor (°C),aerosol sample conditioner tube jacket temperature (°C),OPC LED temperature (°C),internal box temperature (°C),relative humidity of the measurement (%),span deviation,mass concentration of particles derived from Lorenz-Mie calculation of OPC scattering (μg/m³),mass concentration of particles derived from Lorenz-Mie calculation of OPC scattering (μg/m³),mass concentration of particles derived from Lorenz-Mie calculation of OPC scattering (μg/m³)
DateTimeUTC,F1_M11,P_M11,Q1_M11,Q2_M11,T1_M11,T2_M11,T3_M11,T4_M11,T5_M11,U1_M11,ZSPAN_M11,X0_M11,X2_M11,X1_M11
2024-02-07 16:00:00,SystemResetWarning,0812.3,5.01,000.00,018.7,018.1,000.0,027.0,020.3,20.1,0000.0,0010.51,0005.66,0005.27
2024-02-07 16:01:00,SystemResetWarning,0812.2,5.01,000.00,018.7,018.1,000.0,027.0,020.3,20.3,0000.0,0012.11,0005.93,0005.50
2024-02-07 16:02:00,SystemResetWarning,0812.2,5.00,000.00,018.7,018.1,000.0,027.0,020.3,20.3,0000.4,0012.75,0006.16,0005.72
2024-02-07 16:03:00,SystemResetWarning,0812.3,5.00,000.00,018.7,018.1,000.0,027.0,020.3,20.1,0003.6,0012.88,0006.51,0006.06
2024-02-07 16:04:00,SystemResetWarning,0812.4,4.99,000.00,018.7,018.1,000.0,027.0,020.3,20.3,0003.4,0012.80,0006.83,0006.34
2024-02-07 16:05:00,SystemResetWarning,0812.4,5.01,000.00,018.7,018.2,000.0,027.0,020.3,20.4,0003.3,0012.95,0007.28,0006.79
2024-02-07 16:06:00,SystemResetWarning,0812.4,5.00,000.00,018.7,018.2,000.0,027.0,020.4,20.4,0003.0,0013.45,0007.71,0007.20
2024-02-07 16:07:00,SystemResetWarning,0812.3,5.00,000.00,018.7,018.2,000.0,027.0,020.4,20.2,0003.0,0013.62,0007.85,0007.35
2024-02-07 16:08:00,SystemResetWarning,0812.4,4.99,000.00,018.7,018.2,000.0,027.0,020.4,20.0,0003.1,0013.96,0007.95,0007.46
2024-02-07 16:09:00,SystemResetWarning,0812.4,5.01,000.00,018.7,018.2,000.0,027.0,020.4,20.0,0003.1,0014.15,0008.13,0007.67
2024-02-07 16:10:00,SystemResetWarning,0812.4,5.01,000.00,018.7,018.2,000.0,027.0,020.4,20.1,0003.3,0014.48,0008.25,0007.80
2024-02-07 16:11:00,SystemResetWarning,0812.4,5.00,000.00,018.8,018.3,000.0,027.0,020.4,20.2,0003.6,0014.28,0008.19,0007.76
2024-02-07 16:12:00,SystemResetWarning,0812.4,5.01,000.00,018.8,018.3,000.0,027.0,020.4,20.4,0003.6,0013.12,0008.12,0007.72
2024-02-07 16:13:00,SystemResetWarning,0812.4,5.00,000.00,018.8,018.3,000.0,027.0,020.4,20.4,0003.5,0012.84,0008.12,0007.72
2024-02-07 16:14:00,SystemResetWarning,0812.3,4.98,000.00,018.8,018.3,000.0,027.1,020.4,20.3,0003.5,0012.81,0007.98,0007.59
2024-02-07 16:15:00,SystemResetWarning,0812.3,5.01,000.00,018.8,018.3,000.0,027.1,020.4,20.4,0003.8,0012.66,0007.87,0007.50
2024-02-07 16:16:00,SystemResetWarning,0812.3,5.01,000.00,018.8,018.3,000.0,027.1,020.4,20.4,0004.2,0012.47,0007.70,0007.33
2024-02-07 16:17:00,SystemResetWarning,0812.2,4.99,000.00,018.8,018.3,000.0,027.1,020.4,20.5,0004.3,0012.28,0007.42,0007.06
2024-02-07 16:18:00,SystemResetWarning,0812.1,4.98,000.00,018.8,018.3,000.0,027.1,020.4,20.6,0004.2,0012.50,0007.36,0007.00
2024-02-07 16:19:00,SystemResetWarning,0812.1,5.00,000.00,018.8,018.3,000.0,027.1,020.4,20.6,0004.4,0012.69,0007.35,0006.96
2024-02-07 16:20:00,SystemResetWarning,0812.1,5.00,000.00,018.8,018.3,000.0,027.1,020.5,20.4,0004.5,0012.82,0007.24,0006.84
2024-02-07 16:21:00,SystemResetWarning,0812.0,5.00,000.00,018.8,018.3,000.0,027.1,020.4,19.8,0004.4,0012.56,0007.18,0006.78
2024-02-07 16:22:00,SystemResetWarning,0812.0,5.00,000.00,018.8,018.3,000.0,027.1,020.4,19.6,0004.2,0012.49,0007.16,0006.73
2024-02-07 16:23:00,SystemResetWarning,0811.8,5.00,000.00,018.8,018.3,000.0,027.1,020.4,19.5,0004.1,0013.15,0007.12,0006.68
2024-02-07 16:24:00,SystemResetWarning,0811.9,5.00,000.00,018.8,018.3,000.0,027.1,020.5,19.8,0003.3,0013.04,0007.08,0006.65
2024-02-07 16:25:00,SystemResetWarning,0811.8,5.00,000.00,018.8,018.4,000.0,027.1,020.5,20.0,0000.0,0012.80,0007.05,0006.61
2024-02-07 16:26:00,SystemResetWarning,0811.9,5.00,000.00,018.8,018.4,000.0,027.1,020.5,19.8,0000.7,0013.18,0007.00,0006.56
2024-02-07 16:27:00,SystemResetWarning,0811.8,5.00,000.00,018.8,018.4,000.0,027.1,020.5,19.6,0000.0,0013.15,0006.92,0006.49
2024-02-07 16:28:00,SystemResetWarning,0811.8,5.00,000.00,018.9,018.4,000.0,027.1,020.5,20.4,0000.0,0013.47,0006.83,0006.40
2024-02-07 16:29:00,SystemResetWarning,0811.8,5.00,000.00,018.9,018.4,000.0,027.1,020.5,20.8,0000.0,0013.04,0006.77,0006.33
2024-02-07 16:30:00,SystemResetWarning,0811.7,5.00,000.00,018.9,018.4,000.0,027.1,020.5,21.0,0000.0,0012.37,0006.68,0006.25
2024-02-07 16:31:00,SystemResetWarning,0811.6,5.00,000.00,018.9,018.4,000.0,027.1,020.5,21.4,0000.0,0011.73,0006.62,0006.20
2024-02-07 16:32:00,SystemResetWarning,0811.6,5.00,000.00,018.9,018.4,000.0,027.1,020.5,21.7,0000.0,0011.66,0006.57,0006.16
2024-02-07 16:33:00,SystemResetWarning,0811.6,5.00,000.00,018.9,018.4,000.0,027.1,020.5,22.1,0000.0,0011.50,0006.50,0006.13
2024-02-07 16:34:00,SystemResetWarning,0811.6,4.99,000.00,018.9,018.4,000.0,027.1,020.5,21.9,0000.0,0010.91,0006.45,0006.08
2024-02-07 16:35:00,SystemResetWarning,0811.6,5.00,000.00,018.9,018.3,000.0,027.1,020.5,21.7,0000.0,0010.44,0006.40,0006.04
2024-02-07 16:36:00,SystemResetWarning,0811.7,5.00,000.00,018.9,018.3,000.0,027.1,020.5,21.4,0000.0,0010.85,0006.33,0005.94
2024-02-07 16:37:00,SystemResetWarning,0811.7,5.00,000.00,018.9,018.3,000.0,027.1,020.4,21.2,0000.0,0010.59,0006.23,0005.82
2024-02-07 16:38:00,SystemResetWarning,0811.8,4.99,000.00,018.9,018.3,000.0,027.1,020.4,21.1,0001.2,0010.66,0006.17,0005.72
2024-02-07 16:39:00,SystemResetWarning,0811.8,5.00,000.00,018.9,018.3,000.0,027.1,020.4,21.0,0001.5,0010.37,0006.07,0005.62
2024-02-07 16:40:00,SystemResetWarning,0811.8,5.00,000.00,018.9,018.3,000.0,027.1,020.5,21.0,0001.9,0010.27,0006.00,0005.55
2024-02-07 16:41:00,SystemResetWarning,0811.8,5.00,000.00,018.9,018.3,000.0,027.1,020.4,21.2,0001.8,0010.19,0005.91,0005.46
2024-02-07 16:42:00,SystemResetWarning,0811.8,5.00,000.00,018.9,018.3,000.0,027.1,020.4,21.3,0002.0,0010.13,0005.82,0005.36
2024-02-07 16:43:00,SystemResetWarning,0811.8,5.00,000.00,018.9,018.3,000.0,027.1,020.4,21.3,0002.3,0010.05,0005.74,0005.24
2024-02-07 16:44:00,SystemResetWarning,0811.8,5.00,000.00,018.8,018.3,000.0,027.1,020.4,21.2,0002.3,0010.10,0005.62,0005.13
2024-02-07 16:45:00,SystemResetWarning,0811.8,5.00,000.00,018.8,018.3,000.0,027.1,020.4,21.2,0002.3,0010.72,0005.58,0005.05
2024-02-07 16:46:00,SystemResetWarning,0811.8,5.00,000.00,018.8,018.3,000.0,027.1,020.4,21.1,0002.0,0010.73,0005.55,0004.99
2024-02-07 16:47:00,SystemResetWarning,0811.9,5.00,000.00,018.8,018.3,000.0,027.1,020.4,20.9,0002.3,0010.26,0005.53,0004.98
2024-02-07 16:48:00,SystemResetWarning,0812.0,5.00,000.00,018.8,018.3,000.0,027.1,020.4,20.6,0002.0,0009.93,0005.54,0005.01
2024-02-07 16:49:00,SystemResetWarning,0812.1,5.00,000.00,018.8,018.3,000.0,027.1,020.4,20.1,0001.7,0009.97,0005.57,0005.03
2024-02-07 16:50:00,SystemResetWarning,0812.1,5.00,000.00,018.8,018.3,000.0,027.1,020.4,19.8,0000.8,0009.71,0005.56,0005.04
2024-02-07 16:51:00,SystemResetWarning,0812.1,5.00,000.00,018.8,018.3,000.0,027.1,020.5,19.7,0000.0,0009.64,0005.54,0005.03
2024-02-07 16:52:00,SystemResetWarning,0812.1,5.00,000.00,018.9,018.3,000.0,027.1,020.5,20.0,0000.0,0009.72,0005.55,0005.05
2024-02-07 16:53:00,SystemResetWarning,0812.1,5.00,000.00,018.9,018.4,000.0,027.1,020.5,21.0,0000.0,0009.95,0005.61,0005.10
2024-02-07 16:54:00,SystemResetWarning,0812.1,5.00,000.00,018.9,018.4,000.0,027.1,020.5,21.1,0000.2,0010.44,0005.64,0005.14
2024-02-07 16:55:00,SystemResetWarning,0812.1,5.00,000.00,018.9,018.4,000.0,027.2,020.5,21.0,0003.4,0010.77,0005.70,0005.18
2024-02-07 16:56:00,SystemResetWarning,0812.1,5.00,000.00,018.9,018.4,000.0,027.2,020.5,20.8,0003.7,0010.07,0005.75,0005.23
2024-02-07 16:57:00,SystemResetWarning,0812.1,5.00,000.00,018.9,018.4,000.0,027.2,020.5,20.7,0003.9,0009.90,0005.70,0005.23
2024-02-07 16:58:00,SystemResetWarning,0812.1,5.00,000.00,018.9,018.4,000.0,027.2,020.5,20.3,0004.3,0009.97,0005.71,0005.26
2024-02-07 16:59:00,SystemResetWarning,0812.1,5.00,000.00,018.9,018.4,000.0,027.2,020.5,20.6,0004.5,0010.17,0005.70,0005.27
